sat.trackr.live / text

‹ back to catalog

STARLINK-32547

NORAD 61919 · 2024-207H

PAYLOAD ACTIVE UNKNOWN

§ Identity

Operator
Country
US
Launch date
2024-11-11
Launch site
AFETR
Launch vehicle
Mass (kg)
RCS (m²)

Purposes: comms

External: N2YO · Heavens-Above · Gunter

§ Orbital elements

Epoch: 2026-05-25T04:06:52.492032Z

Period
94.27 min
Inclination
43.0005°
Eccentricity
0.0002939
Mean motion
15.27596360 rev/d
Perigee alt
481.0 km
Apogee alt
485.0 km
Semi-major
6,861.1 km
B*
5.8476e-4
RAAN
209.4157°
Arg perigee
277.4670°
Mean anomaly
82.5847°
Rev number
8,641

§ Raw data

STARLINK-325471 61919U 24207H   26145.17144088  .00015873  00000+0  58476-3 0  99982 61919  43.0005 209.4157 0002939 277.4670  82.5847 15.27596360 86411

JSON: /api/v1/satellites/61919 · /tle

For live sub-satellite position, see the globe view (requires WebGL).

§ Visibility from observer

Set your observer location to see the next 7 days of passes ≥ 10°. The values pass through the URL so the page stays shareable.

No JS? Fill the form by hand. The geolocation button needs JavaScript.